Regional Weather Roundup
Issued by NWS Upton, NY

Current Version | Previous Version | Graphics & Text | Print | Product List | Glossary Off
Versions: 1 2 3 4 5 6 7 8 9 10 11 12 13 14 15 16 17 18 19 20 21 22 23 24 25 26 27 28 29 30 31 32 33 34 35 36 37 38 39 40 41 42 43 44 45 46 47 48 49 50

000
ASUS41 KOKX 261605
RWROKX

REGIONAL WEATHER ROUNDUP
NATIONAL WEATHER SERVICE NEW YORK NY
1100 AM EST THU FEB 26 2015

NOTE: "FAIR" INDICATES FEW OR NO CLOUDS BELOW 12,000 FEET WITH NO
SIGNIFICANT WEATHER AND/OR OBSTRUCTIONS TO VISIBILITY.

NYZ071-072-176-178-NJZ106-104-261700-
NEW YORK CITY METRO AREA


CITY           SKY/WX    TMP DP  RH WIND       PRES   REMARKS
CENTRAL PARK   CLOUDY    23   6  48 VRB6      30.03S WCI  16
LAGUARDIA APRT CLOUDY    24   7  48 NE13      30.02S WCI  12
KENNEDY INTL   CLOUDY    25   7  46 NE15      30.03R WCI  13
NEWARK/LIBERTY CLOUDY    22  10  60 N17       30.02S WCI   8
BRNX BOT. GARD   N/A    N/A N/A N/A NE13      30.04R
TETERBORO      FLURRIES  21   7  54 N9        30.03R WCI  11
$$

NYZ177-179-078>081-261700-
LONG ISLAND NEW YORK

CITY           SKY/WX    TMP DP  RH WIND       PRES   REMARKS
FARMINGDALE    CLOUDY    23   9  55 NE13      30.01R WCI  11
ISLIP          CLOUDY    23  10  57 N14       29.99S WCI  11
SHIRLEY        CLOUDY    24   9  52 NE9G16    30.02R WCI  14
WESTHAMPTON    CLOUDY    23  10  57 NE15      30.01F WCI  10
MONTAUK POINT    N/A     24  10  55 NE12      30.01S WCI  13
$$

NYZ052-065-067-261700-
HUDSON VALLEY

CITY           SKY/WX    TMP DP  RH WIND       PRES   REMARKS
WHITE PLAINS   LGT SNOW  20   7  57 N8        29.99S FOG     WCI  10
NEWBURGH       LGT SNOW  16   9  73 E12       30.03S WCI   3
MONTGOMERY     LGT SNOW  16   9  74 N13       30.02S WCI   2
POUGHKEEPSIE   LGT SNOW  18   7  62 N6        30.05S WCI  10
ALBANY         CLOUDY    13  -6  42 N8        30.09F WCI   2
$$

NJZ001-105-106-008-010-013-015-019>022-104-261700-
NEW JERSEY

CITY           SKY/WX    TMP DP  RH WIND       PRES   REMARKS
NEWARK/LIBERTY CLOUDY    22  10  60 N17       30.02S WCI   8
TETERBORO      FLURRIES  21   7  54 N9        30.03R WCI  11
CALDWELL       LGT SNOW  19  11  70 VRB5      30.03S WCI  12
MORRISTOWN     LGT SNOW  19  12  73 NE9G20    30.03R WCI   9
SOMERVILLE     CLOUDY    24  10  55 N8        29.99S WCI  15
SUSSEX         LGT SNOW  16   9  74 NE12      30.01S VSB 1   WCI   3
ANDOVER          N/A     17   9  70 NE6       30.00R WCI   9
TRENTON        CLOUDY    24   6  46 NE13      29.98S WCI  12
MILLVILLE      LGT SNOW  26  21  81 NE17      29.90F WCI  13
ATLANTIC CITY  LGT SNOW  25  21  85 NE20      29.90F VSB 1   WCI  11
WRIGHTSTOWN    PTSUNNY   26  12  54 N16       29.94F WCI  14
TOMS RIVER     CLOUDY    27  14  59 NE21G28   29.96F WCI  13
BELMAR         CLOUDY    25   9  50 N12G17    29.97S WCI  14
$$

PAZ047>061-062-071-261700-
EASTERN PENNSYLVANIA

CITY           SKY/WX    TMP DP  RH WIND       PRES   REMARKS
PHILADELPHIA   CLOUDY    29  11  47 N18G28    29.96F WCI  16
ALLENTOWN      LGT SNOW  20  11  68 NE9       29.99F WCI   9
SCRANTON       LGT SNOW  18   7  62 N6        29.96F WCI  10
$$

CTZ002-004>006-009-010-012-RIZ004-006-007-MAZ004-011-015-261700-
SOUTHERN NEW ENGLAND
 IN CT

CITY           SKY/WX    TMP DP  RH WIND       PRES   REMARKS
BRADLEY INTL   LGT SNOW  18   8  65 N10       30.04F WCI   6
HARTFORD       LGT SNOW  17  10  74 N10       30.05F WCI   5
DANBURY        CLOUDY    19   3  49 NE6       30.01F WCI  11
WTRBRY/OXFORD  LGT SNOW  16   0  48 NE7       29.99S WCI   6
BRIDGEPORT     CLOUDY    22   7  52 N14       30.03F WCI   9
MERIDEN        LGT SNOW  18  10  71 NE10      30.04S VSB 3/4 WCI   6
NEW HAVEN      CLOUDY    21   7  54 N12       30.02S WCI   9
CHESTER        PTSUNNY   21   5  49 NE7       30.00R WCI  13
GROTON         CLOUDY    21   5  50 NE16      30.02S WCI   7
WILLIMANTIC    CLOUDY    19   4  51 NE9       30.04S WCI   8

 IN RI

CITY           SKY/WX    TMP DP  RH WIND       PRES   REMARKS
PROVIDENCE     CLOUDY    20   6  55 N13       30.03F WCI   7
BLOCK ISLAND   CLOUDY    21  10  63 NE14G24   29.98S WCI   8
WESTERLY       CLOUDY    22   5  48 N9G18     30.02S WCI  12

 IN MA

CITY           SKY/WX    TMP DP  RH WIND       PRES   REMARKS
BOSTON         FLURRIES  19   8  62 N13       30.05F WCI   6
WORCESTER      LGT SNOW  14   2  58 N13       29.97F WCI   0
WESTFIELD      LGT SNOW  15   8  73 N13       30.04F WCI   1
PROVINCETOWN   CLOUDY    28  19  69 NE22      30.01F WCI  15
NANTUCKET      SNOW      28  24  85 NE10      29.96S VSB 1/2 WCI  19
$$

ANZ330-335-338-340-345-350-353-355-261700-
COASTAL MARINE OBSERVATIONS


STATION/POSITION TIME  SKY/WX   TEMP    WIND        PRES    VSBY  WAVE
                                AIR SEA DIR/SP/G                  HT/PER
                 (UTC)          (F)     (DEG/KT/KT) (MB)    (MI)  (FT/S)
NY HARB ENTRANCE 1600            25 39   30/ 16/ 21 1015.8          4/ 5
4S FIRE IS       NOT AVBL
20S FIRE ISLAND  1500               35              1015.0          6/ 6
23SW MTP         1600                                 N/A           5/ 5
HUDSON CANYON    NOT AVBL
EXECUTION ROCKS  NOT AVBL
WESTERN LI SOUND NOT AVBL
CENTRAL LI SOUND NOT AVBL
EASTERN LI SOUND NOT AVBL
ROBBINS REEF     1600            22      10/ 16/ 18 1015.0
$$


>>>>>>>>>>>>>>>>>>>>>>>>>>>> KEY <<<<<<<<<<<<<<<<<<<<<<<<<<<
>                                                          <
>     SKY/WX - SKY CONDITION/PRESENT WEATHER               <
>     TMP    - TEMPERATURE IN FAHRENHEIT                   <
>     DP     - DEWPOINT IN FAHRENHEIT                      <
>     RH     - RELATIVE HUMIDITY IN PERCENT                <
>     WIND   - DIRECTION AND SPEED IN MPH                  <
>     PRES   - MEAN SEA LEVEL PRESSURE IN INCHES OF HG     <
>     WCI    - WIND CHILL INDEX                            <
>     VSB    - VISIBILITY IN MILES                         <
>     HX     - HEAT INDEX                                  <
>     TC     - TEMPERATURE IN CELSIUS                      <
>     VRB    - VARIABLE WIND DIRECTION                     <
>                                                          <
>>>>>>>>>>>>>>>>>>>>>>>>>>>> KEY <<<<<<<<<<<<<<<<<<<<<<<<<<<




USA.gov is the U.S. government's official web portal to all federal, state and local government web resources and services.